Regional Weather Roundup
Issued by NWS

Home | Current Version | Previous Version | Text Only | Print | Product List | Glossary Off
Versions: 1 2 3 4 5 6 7 8 9 10 11 12 13 14 15 16 17 18 19 20 21 22 23 24 25 26 27 28 29 30 31 32 33 34 35 36 37 38 39 40 41 42 43 44 45 46 47 48 49 50

055
ASUS45 KSLC 261710
RWRUT

UTAH REGIONAL WEATHER ROUNDUP
NATIONAL WEATHER SERVICE SALT LAKE CITY UT
1100 AM MDT THU MAY 26 2016

UTZ001>011-023>025-261800-

NORTHERN UTAH

CITY           SKY/WX    TMP DP  RH WIND       PRES   REMARKS
BRIGHAM CITY     N/A     60  42  49 CALM      30.02S
DUGWAY         MOSUNNY   64  41  42 SW3       30.03F
HILL AFB         N/A     60  41  50 VRB1      30.02S
LOGAN            N/A     57  43  59 CALM      30.03F
OGDEN            N/A     61  41  47 NW7       30.00F
PROVO AIRPORT  MOSUNNY   59  41  51 VRB5      30.00F
SALT LAKE CITY   N/A     64  42  44 N3        30.00F
VERNAL           N/A     61  36  39 S3        29.96F
WENDOVER       CLOUDY    63  36  36 NW8       30.04S
HEBER CITY       N/A     57  37  47 CALM      30.00F
WEST JORDAN    SUNNY     61  43  51 NW9       30.01F

$$

UTZ012>022-026-027-261800-

SOUTHERN/CENTRAL UTAH

CITY           SKY/WX    TMP DP  RH WIND       PRES   REMARKS
BLANDING         N/A     62  20  19 S10G16    30.03S
BRYCE CANYON   TSTM      48  32  53 W17G23    30.05F
CEDAR CITY       N/A     60  36  40 N8        30.02S
DELTA          PTSUNNY   61  37  41 CALM      30.01F
HANKSVILLE       N/A     68  28  22 E8        29.91S
MILFORD          N/A     62  38  40 N15       30.01F
MOAB/CYNLANDS    N/A     71  23  16 VRB7      29.86S
PRICE            N/A     66  26  22 NE12      29.95F
ST GEORGE        N/A     72  36  26 W10       29.94S

$$

REGIONAL REPORTS     COLORADO/ARIZONA

CITY           SKY/WX    TMP DP  RH WIND       PRES   REMARKS
CRAIG, CO        N/A     58  37  45 VRB7      29.99F
GRAND JUNCTION   N/A     68  26  20 S8        29.88F
RIFLE            N/A     63  27  25 CALM      29.91F
MONTROSE         N/A     66  19  16 NE9       29.93F
CORTEZ           N/A     64  23  21 SW12G17   29.96F
PAGE, AZ       PTSUNNY   67  28  23 VRB5      29.92S
GRAND CANYON   PTSUNNY   56  26  31 VRB7      30.05F
KINGMAN          N/A     69  30  23 W9        29.99S
FLAGSTAFF      PTSUNNY   50  22  33 NW8       30.07S

$$

REGIONAL REPORTS    NEVADA/IDAHO/WYOMING

CITY           SKY/WX    TMP DP  RH WIND       PRES   REMARKS
LAS VEGAS, NV    N/A     73  35  25 SW3       29.91S
ELY              N/A     52  39  61 NE14      30.09F
ELKO             N/A     56  42  59 W8        30.09F
POCATELLO, ID    N/A     57  46  66 VRB5      30.05S
BURLEY           N/A     60  43  53 W7        30.03F
EVANSTON, WY     N/A     50  36  58 MISG      30.07F
ROCK SPRINGS     N/A     52  35  52 NW9       30.05F
KEMMERER         N/A     52  32  46 W3        30.08F

$$




USA.gov is the U.S. government's official web portal to all federal, state and local government web resources and services.